This demonstration page uses our WeatherBlox Daily Observations layout. Learn more.

Left ArrowRight Arrow

41.55636, -103.73856

Hourly Observations for December 11, 2018

Temp ( °F °C ) Dew Point ( °F °C ) Humidity (%) Winds ( mph kmh ) Pressure ( in mb ) Visibility ( mi km ) Precip ( " mm )
5:58 pm 17:58 Mostly Clear 37 2.9 14 -10 38 38 WSW 14 22 30.15 1021 10 16 N/A
6:58 pm 18:58 Clear 34 1 12 -10.9 41 41 N 5 7 30.16 1021 10 16 N/A
7:58 pm 19:58 Mostly Cloudy 36 2.2 11 -11.4 36 36 WSW 13 20 30.13 1020 10 16 N/A
8:58 pm 20:58 Clear 35 1.6 13 -10.8 40 40 W 16 26 30.14 1021 10 16 N/A
9:58 pm 21:58 Partly Cloudy 35 1.6 12 -11.2 38 38 W 16 26 30.10 1019 10 16 N/A
10:58 pm 22:58 Clear 32 -0.2 14 -9.9 48 48 W 12 19 30.08 1019 10 16 N/A
11:58 pm 23:58 Clear 32 -0.1 12 -11.2 43 43 W 12 19 30.05 1018 10 16 N/A
12:58 am 00:58 Partly Cloudy 31 -0.6 14 -10 49 49 W 12 19 30.04 1017 10 16 N/A
1:58 am 01:58 Mostly Cloudy 34 1.2 17 -8.4 49 49 W 8 13 30.02 1017 10 16 N/A
2:58 am 02:58 Cloudy 35 1.4 19 -7.4 52 52 W 14 22 30.04 1017 10 16 N/A
3:58 am 03:58 Mostly Cloudy 37 2.6 13 -10.3 38 38 W 20 31 30.01 1016 10 16 N/A
4:58 am 04:58 Mostly Cloudy 36 2.2 13 -10.5 39 39 WNW 17 28 30.02 1017 10 16 N/A
5:58 am 05:58 Mostly Cloudy 33 0.8 15 -9.4 47 47 W 17 28 30.06 1018 10 16 N/A
6:58 am 06:58 Mostly Cloudy 32 0 13 -10.5 45 45 WNW 12 19 30.08 1019 10 16 N/A
7:59 am 07:59 Mostly Sunny 32 0.2 13 -10.5 45 45 W 14 22 30.08 1019 10 16 N/A
8:58 am 08:58 Sunny 36 2.4 17 -8.2 46 46 WNW 22 35 30.09 1019 10 16 N/A
9:58 am 09:58 Sunny 37 3 19 -7 48 48 NW 33 54 30.07 1018 10 16 N/A
10:58 am 10:58 Sunny 38 3.2 19 -7.3 46 46 WNW 39 63 30.08 1019 10 16 N/A
11:59 am 11:59 Sunny 38 3.1 19 -7 48 48 NW 33 54 30.06 1018 10 16 N/A
12:58 pm 12:58 Sunny 38 3.2 19 -7.5 46 46 NW 32 52 30.06 1018 10 16 N/A
1:58 pm 13:58 Sunny 37 2.5 18 -7.6 48 48 NW 31 50 30.04 1017 10 16 N/A
2:58 pm 14:58 Sunny 36 2 19 -7.5 50 50 NW 24 39 30.04 1017 10 16 N/A
3:58 pm 15:58 Sunny 34 1.1 17 -8.3 50 50 NNW 26 43 30.01 1016 10 16 N/A
4:58 pm 16:58 Clear 32 -0.2 17 -8.4 54 54 NNW 17 28 30.03 1017 10 16 N/A

Powered by AerisWeather